GLO9572 SBGL-SPJC

Flight info

Callsign GLO9572
Flight time N/A
Altitude 32000
Route NAXOP UZ45 UKDAN UM415 ALGAN/N0457F360 UM415 VIR UN420 TRI UM668 URC UT321 PEROV/N0438F280
Aircraft B738/M-SDFGIKLORWXY/LB1

Departure

Time N/A
Airport Rio Galeão – Tom Jobim International Airport (SBGL)

Arrival

Time 2026-05-05 19:47
Airport Jorge Chávez International Airport (SPJC)
Time Latitude Longitude Altitude Speed Heading
2026-05-05 15:12 -23.41069 -47.69224 32210 ft 434 kts 284°
2026-05-05 15:12 -23.39157 -47.75438 32201 ft 434 kts 284°
2026-05-05 15:13 -23.37236 -47.81674 32199 ft 434 kts 284°
2026-05-05 15:13 -23.35324 -47.87872 32199 ft 434 kts 284°
2026-05-05 15:14 -23.33404 -47.94086 32196 ft 434 kts 284°
2026-05-05 15:14 -23.31474 -48.00325 32200 ft 433 kts 284°
2026-05-05 15:15 -23.29558 -48.06508 32201 ft 433 kts 284°
2026-05-05 15:15 -23.27621 -48.12730 32196 ft 433 kts 284°
2026-05-05 15:16 -23.25680 -48.18903 32196 ft 432 kts 284°
2026-05-05 15:16 -23.23743 -48.25061 32197 ft 432 kts 284°
2026-05-05 15:17 -23.22119 -48.30218 32200 ft 432 kts 284°
2026-05-05 15:17 -23.20176 -48.36410 32190 ft 431 kts 284°
2026-05-05 15:18 -23.18254 -48.42549 32194 ft 431 kts 284°
2026-05-05 15:18 -23.16313 -48.48739 32196 ft 431 kts 284°
2026-05-05 15:19 -23.14387 -48.54866 32194 ft 430 kts 284°
2026-05-05 15:19 -23.12448 -48.60997 32201 ft 430 kts 285°
2026-05-05 15:20 -23.10488 -48.67156 32193 ft 430 kts 285°
2026-05-05 15:20 -23.08534 -48.73290 32199 ft 430 kts 285°
2026-05-05 15:21 -23.06572 -48.79445 32189 ft 430 kts 285°
2026-05-05 15:21 -23.04616 -48.85575 32191 ft 430 kts 285°
2026-05-05 15:22 -23.02651 -48.91722 32193 ft 430 kts 285°
2026-05-05 15:22 -23.00696 -48.97829 32186 ft 430 kts 285°
2026-05-05 15:23 -22.98724 -49.03982 32184 ft 430 kts 285°
2026-05-05 15:23 -22.96767 -49.10079 32192 ft 430 kts 285°
2026-05-05 15:24 -22.94792 -49.16221 32184 ft 430 kts 285°
2026-05-05 15:24 -22.92618 -49.22267 32188 ft 432 kts 288°
2026-05-05 15:25 -22.90353 -49.28311 32181 ft 432 kts 287°
2026-05-05 15:25 -22.88322 -49.34396 32185 ft 429 kts 283°
2026-05-05 15:26 -22.86518 -49.40552 32177 ft 430 kts 283°
2026-05-05 15:26 -22.84652 -49.46743 32175 ft 430 kts 284°
2026-05-05 15:27 -22.82657 -49.52844 32172 ft 432 kts 285°
2026-05-05 15:27 -22.80582 -49.58929 32175 ft 432 kts 285°
2026-05-05 15:28 -22.78509 -49.65053 32168 ft 432 kts 285°
2026-05-05 15:28 -22.76458 -49.71149 32167 ft 432 kts 285°
2026-05-05 15:29 -22.74397 -49.77275 32161 ft 431 kts 285°
2026-05-05 15:29 -22.72346 -49.83357 32164 ft 430 kts 285°
2026-05-05 15:30 -22.70290 -49.89422 32162 ft 430 kts 285°
2026-05-05 15:30 -22.68223 -49.95505 32162 ft 430 kts 285°
2026-05-05 15:31 -22.66154 -50.01593 32159 ft 430 kts 285°
2026-05-05 15:31 -22.64098 -50.07634 32159 ft 429 kts 285°
2026-05-05 15:32 -22.62052 -50.13695 32174 ft 429 kts 284°
2026-05-05 15:32 -22.60032 -50.19739 32153 ft 429 kts 284°
2026-05-05 15:33 -22.57997 -50.25796 32151 ft 429 kts 285°
2026-05-05 15:33 -22.55913 -50.31869 32164 ft 429 kts 285°
2026-05-05 15:34 -22.53828 -50.37896 32148 ft 429 kts 285°
2026-05-05 15:34 -22.51744 -50.43923 32159 ft 429 kts 285°
2026-05-05 15:35 -22.49658 -50.49958 32150 ft 429 kts 285°
2026-05-05 15:35 -22.47561 -50.56022 32153 ft 429 kts 285°
2026-05-05 15:36 -22.45475 -50.62044 32144 ft 429 kts 285°
2026-05-05 15:36 -22.43374 -50.68100 32147 ft 429 kts 285°
2026-05-05 15:37 -22.41284 -50.74118 32143 ft 429 kts 285°
2026-05-05 15:37 -22.39179 -50.80172 32149 ft 429 kts 285°
2026-05-05 15:38 -22.37093 -50.86158 32142 ft 429 kts 285°
2026-05-05 15:38 -22.34985 -50.92205 32149 ft 429 kts 285°
2026-05-05 15:39 -22.32888 -50.98208 32140 ft 429 kts 285°
2026-05-05 15:39 -22.30779 -51.04241 32146 ft 429 kts 285°
2026-05-05 15:40 -22.28662 -51.10290 32520 ft 432 kts 285°
2026-05-05 15:40 -22.27596 -51.13327 32964 ft 430 kts 285°
2026-05-05 15:40 -22.26538 -51.16337 33434 ft 426 kts 284°
2026-05-05 15:40 -22.25499 -51.19295 33884 ft 424 kts 284°
2026-05-05 15:41 -22.24453 -51.22272 34259 ft 423 kts 284°
2026-05-05 15:41 -22.23411 -51.25238 34569 ft 422 kts 284°
2026-05-05 15:41 -22.22372 -51.28196 34916 ft 420 kts 283°
2026-05-05 15:41 -22.21334 -51.31145 35300 ft 417 kts 283°
2026-05-05 15:42 -22.20318 -51.34028 35667 ft 414 kts 283°
2026-05-05 15:42 -22.19295 -51.36937 35973 ft 413 kts 282°
2026-05-05 15:42 -22.18268 -51.39850 36193 ft 414 kts 282°
2026-05-05 15:43 -22.16237 -51.45649 36176 ft 414 kts 282°
2026-05-05 15:43 -22.14248 -51.51437 36181 ft 410 kts 282°
2026-05-05 15:44 -22.12270 -51.57208 36177 ft 408 kts 282°
2026-05-05 15:44 -22.10304 -51.62927 36157 ft 407 kts 282°
2026-05-05 15:45 -22.08337 -51.68636 36150 ft 407 kts 282°
2026-05-05 15:45 -22.06365 -51.74350 36139 ft 408 kts 282°
2026-05-05 15:46 -22.04377 -51.80103 36130 ft 409 kts 282°
2026-05-05 15:46 -22.02396 -51.85825 36125 ft 410 kts 282°
2026-05-05 15:47 -22.00400 -51.91585 36121 ft 411 kts 282°
2026-05-05 15:47 -21.98388 -51.97383 36120 ft 412 kts 282°
2026-05-05 15:48 -21.96386 -52.03142 36120 ft 412 kts 282°
2026-05-05 15:48 -21.94369 -52.08938 36117 ft 413 kts 282°
2026-05-05 15:49 -21.92356 -52.14716 36119 ft 413 kts 282°
2026-05-05 15:49 -21.90340 -52.20497 36113 ft 414 kts 282°
2026-05-05 15:50 -21.88312 -52.26303 36113 ft 414 kts 282°
2026-05-05 15:50 -21.86300 -52.32068 36110 ft 413 kts 282°
2026-05-05 15:51 -21.84274 -52.37873 36107 ft 413 kts 282°
2026-05-05 15:51 -21.82261 -52.43639 36107 ft 413 kts 283°
2026-05-05 15:52 -21.80236 -52.49431 36112 ft 412 kts 283°
2026-05-05 15:52 -21.78214 -52.55208 36105 ft 412 kts 283°
2026-05-05 15:53 -21.76201 -52.60951 36097 ft 412 kts 283°
2026-05-05 15:53 -21.74173 -52.66733 36097 ft 412 kts 283°
2026-05-05 15:54 -21.72160 -52.72463 36107 ft 412 kts 283°
2026-05-05 15:54 -21.70128 -52.78235 36098 ft 412 kts 283°
2026-05-05 15:55 -21.68100 -52.83962 36101 ft 412 kts 283°
2026-05-05 15:55 -21.66052 -52.89731 36102 ft 411 kts 283°
2026-05-05 15:56 -21.64021 -52.95452 36100 ft 411 kts 283°
2026-05-05 15:56 -21.61972 -53.01217 36100 ft 412 kts 283°
2026-05-05 15:57 -21.59937 -53.06937 36101 ft 412 kts 283°
2026-05-05 15:57 -21.57884 -53.12702 36116 ft 412 kts 283°
2026-05-05 15:58 -21.55837 -53.18442 36105 ft 413 kts 283°
2026-05-05 15:58 -21.53775 -53.24215 36098 ft 413 kts 283°
2026-05-05 15:59 -21.51721 -53.29959 36106 ft 413 kts 283°
2026-05-05 15:59 -21.49663 -53.35709 36100 ft 414 kts 283°
2026-05-05 16:00 -21.47588 -53.41502 36099 ft 414 kts 283°
2026-05-05 16:00 -21.45525 -53.47248 36097 ft 414 kts 283°
2026-05-05 16:01 -21.43452 -53.53029 36090 ft 414 kts 283°
2026-05-05 16:01 -21.41388 -53.58786 36093 ft 414 kts 283°
2026-05-05 16:02 -21.39328 -53.64526 36095 ft 413 kts 284°
2026-05-05 16:02 -21.37263 -53.70275 36102 ft 413 kts 284°
2026-05-05 16:03 -21.35192 -53.76033 36093 ft 413 kts 284°
2026-05-05 16:03 -21.33127 -53.81765 36084 ft 413 kts 284°
2026-05-05 16:04 -21.31059 -53.87499 36095 ft 413 kts 284°
2026-05-05 16:04 -21.28977 -53.93268 36093 ft 413 kts 284°
2026-05-05 16:05 -21.26908 -53.98993 36088 ft 413 kts 284°
2026-05-05 16:05 -21.24821 -54.04747 36092 ft 414 kts 284°
2026-05-05 16:06 -21.22726 -54.10505 36093 ft 414 kts 284°
2026-05-05 16:06 -21.20639 -54.16237 36092 ft 415 kts 284°
2026-05-05 16:07 -21.18545 -54.21982 36084 ft 415 kts 284°
2026-05-05 16:07 -21.16796 -54.26778 36091 ft 415 kts 284°
2026-05-05 16:08 -21.15037 -54.31597 36090 ft 415 kts 285°
2026-05-05 16:09 -21.10095 -54.45104 36083 ft 415 kts 285°
2026-05-05 16:09 -21.07992 -54.50842 36078 ft 415 kts 285°
2026-05-05 16:10 -21.05883 -54.56587 36083 ft 415 kts 285°
2026-05-05 16:10 -21.03777 -54.62321 36079 ft 415 kts 285°
2026-05-05 16:11 -21.01670 -54.68048 36076 ft 414 kts 285°
2026-05-05 16:12 -20.97446 -54.79510 36079 ft 414 kts 285°
2026-05-05 16:13 -20.92520 -54.92847 36082 ft 414 kts 285°
2026-05-05 16:13 -20.90411 -54.98555 36075 ft 414 kts 285°
2026-05-05 16:14 -20.86182 -55.09981 36076 ft 413 kts 285°
2026-05-05 16:15 -20.81834 -55.21369 36067 ft 413 kts 286°
2026-05-05 16:16 -20.77480 -55.32719 36068 ft 412 kts 286°
2026-05-05 16:17 -20.74229 -55.41193 36068 ft 412 kts 286°
2026-05-05 16:18 -20.70957 -55.49709 36059 ft 412 kts 286°
2026-05-05 16:19 -20.67697 -55.58181 36058 ft 412 kts 286°
2026-05-05 16:19 -20.64418 -55.66685 36050 ft 412 kts 287°
2026-05-05 16:20 -20.60065 -55.77956 36047 ft 412 kts 287°
2026-05-05 16:22 -20.54595 -55.92080 36045 ft 412 kts 287°
2026-05-05 16:23 -20.50221 -56.03345 36044 ft 411 kts 287°
2026-05-05 16:23 -20.46936 -56.11791 36041 ft 412 kts 287°
2026-05-05 16:24 -20.44732 -56.17448 36038 ft 412 kts 287°
2026-05-05 16:25 -20.41438 -56.25893 36034 ft 412 kts 287°
2026-05-05 16:25 -20.38143 -56.34325 36044 ft 411 kts 287°
2026-05-05 16:26 -20.33748 -56.45551 36040 ft 411 kts 287°
2026-05-05 16:27 -20.31552 -56.51151 36040 ft 410 kts 287°
2026-05-05 16:27 -20.29352 -56.56756 36039 ft 410 kts 287°
2026-05-05 16:28 -20.27143 -56.62377 36038 ft 410 kts 287°
2026-05-05 16:28 -20.24951 -56.67950 36043 ft 409 kts 287°
2026-05-05 16:29 -20.22747 -56.73546 36044 ft 409 kts 287°
2026-05-05 16:29 -20.20551 -56.79114 36034 ft 409 kts 287°
2026-05-05 16:30 -20.18358 -56.84670 36040 ft 408 kts 287°
2026-05-05 16:30 -20.16147 -56.90267 36035 ft 409 kts 287°
2026-05-05 16:31 -20.13950 -56.95821 36034 ft 409 kts 287°
2026-05-05 16:31 -20.11748 -57.01382 36033 ft 409 kts 287°
2026-05-05 16:32 -20.09531 -57.06976 36028 ft 409 kts 287°
2026-05-05 16:32 -20.07322 -57.12542 36025 ft 409 kts 287°
2026-05-05 16:33 -20.05102 -57.18132 36020 ft 409 kts 287°
2026-05-05 16:33 -20.02892 -57.23688 36019 ft 409 kts 287°
2026-05-05 16:34 -20.00681 -57.29242 36016 ft 409 kts 287°
2026-05-05 16:34 -19.98451 -57.34840 36014 ft 409 kts 287°
2026-05-05 16:35 -19.96246 -57.40367 36019 ft 408 kts 287°
2026-05-05 16:35 -19.94021 -57.45943 36010 ft 408 kts 287°
2026-05-05 16:36 -19.91810 -57.51466 36012 ft 408 kts 287°
2026-05-05 16:36 -19.89580 -57.57019 36007 ft 408 kts 287°
2026-05-05 16:37 -19.87362 -57.62535 36005 ft 407 kts 287°
2026-05-05 16:37 -19.85137 -57.68064 36005 ft 407 kts 287°
2026-05-05 16:38 -19.82912 -57.73589 36000 ft 408 kts 287°
2026-05-05 16:38 -19.80671 -57.79150 36004 ft 408 kts 288°
2026-05-05 16:39 -19.78453 -57.84648 36006 ft 408 kts 288°
2026-05-05 16:39 -19.76207 -57.90210 36001 ft 409 kts 288°
2026-05-05 16:40 -19.73974 -57.95732 35997 ft 409 kts 288°
2026-05-05 16:40 -19.71718 -58.01307 35996 ft 409 kts 288°
2026-05-05 16:41 -19.69478 -58.06839 35997 ft 409 kts 288°
2026-05-05 16:41 -19.67247 -58.12375 35989 ft 409 kts 287°
2026-05-05 16:42 -19.65030 -58.17958 35990 ft 410 kts 287°
2026-05-05 16:42 -19.62827 -58.23499 35986 ft 410 kts 287°
2026-05-05 16:43 -19.60608 -58.29096 35999 ft 410 kts 287°
2026-05-05 16:43 -19.58401 -58.34663 35986 ft 410 kts 288°
2026-05-05 16:44 -19.56186 -58.40246 35982 ft 411 kts 288°
2026-05-05 16:44 -19.53972 -58.45819 35992 ft 411 kts 288°
2026-05-05 16:45 -19.51754 -58.51394 35993 ft 411 kts 288°
2026-05-05 16:45 -19.49536 -58.56965 35987 ft 411 kts 288°
2026-05-05 16:46 -19.47304 -58.62565 35985 ft 411 kts 288°
2026-05-05 16:46 -19.45081 -58.68136 35985 ft 411 kts 288°
2026-05-05 16:47 -19.42858 -58.73701 35988 ft 411 kts 288°
2026-05-05 16:47 -19.40621 -58.79297 35990 ft 411 kts 288°
2026-05-05 16:48 -19.38395 -58.84856 35983 ft 412 kts 288°
2026-05-05 16:48 -19.36153 -58.90454 35981 ft 412 kts 288°
2026-05-05 16:49 -19.33922 -58.96015 35979 ft 412 kts 288°
2026-05-05 16:49 -19.31684 -59.01590 35982 ft 411 kts 288°
2026-05-05 16:50 -19.29445 -59.07165 35981 ft 416 kts 289°
2026-05-05 16:50 -19.27151 -59.12870 35990 ft 424 kts 290°
2026-05-05 16:51 -19.24842 -59.18601 35976 ft 424 kts 290°
2026-05-05 16:51 -19.22533 -59.24324 35979 ft 424 kts 290°
2026-05-05 16:52 -19.20324 -59.29798 35977 ft 424 kts 290°
2026-05-05 16:52 -19.18017 -59.35505 35976 ft 423 kts 290°
2026-05-05 16:53 -19.15704 -59.41225 35972 ft 421 kts 290°
2026-05-05 16:53 -19.13409 -59.46893 35971 ft 420 kts 290°
2026-05-05 16:54 -19.11109 -59.52569 35971 ft 419 kts 290°
2026-05-05 16:54 -19.08824 -59.58202 35971 ft 418 kts 290°
2026-05-05 16:55 -19.06526 -59.63859 35971 ft 417 kts 290°
2026-05-05 16:55 -19.04241 -59.69482 35966 ft 417 kts 290°
2026-05-05 16:56 -19.01956 -59.75096 35969 ft 417 kts 290°
2026-05-05 16:56 -18.99662 -59.80729 35965 ft 418 kts 290°
2026-05-05 16:57 -18.97355 -59.86388 35965 ft 418 kts 290°
2026-05-05 16:57 -18.95045 -59.92048 35963 ft 419 kts 290°
2026-05-05 16:58 -18.92743 -59.97680 35963 ft 420 kts 290°
2026-05-05 16:58 -18.90423 -60.03354 35966 ft 420 kts 290°
2026-05-05 16:59 -18.88115 -60.08990 35957 ft 421 kts 291°
2026-05-05 16:59 -18.85786 -60.14672 35961 ft 421 kts 291°
2026-05-05 17:00 -18.83473 -60.20310 35955 ft 421 kts 291°
2026-05-05 17:00 -18.81135 -60.26002 35956 ft 421 kts 291°
2026-05-05 17:01 -18.78814 -60.31649 35954 ft 421 kts 291°
2026-05-05 17:01 -18.76477 -60.37328 35958 ft 421 kts 291°
2026-05-05 17:02 -18.74153 -60.42970 35961 ft 420 kts 291°
2026-05-05 17:02 -18.71832 -60.48600 35953 ft 420 kts 291°
2026-05-05 17:03 -18.69491 -60.54270 35953 ft 420 kts 291°
2026-05-05 17:03 -18.67166 -60.59898 35955 ft 419 kts 291°
2026-05-05 17:04 -18.64833 -60.65540 35952 ft 419 kts 291°
2026-05-05 17:04 -18.62511 -60.71149 35950 ft 419 kts 291°
2026-05-05 17:05 -18.60187 -60.76756 35949 ft 418 kts 291°
2026-05-05 17:05 -18.57848 -60.82397 35949 ft 418 kts 291°
2026-05-05 17:06 -18.55524 -60.87995 35947 ft 418 kts 291°
2026-05-05 17:06 -18.53191 -60.93607 35948 ft 418 kts 291°
2026-05-05 17:07 -18.50857 -60.99219 35945 ft 418 kts 291°
2026-05-05 17:07 -18.48518 -61.04836 35946 ft 418 kts 291°
2026-05-05 17:08 -18.46191 -61.10418 35942 ft 418 kts 291°
2026-05-05 17:08 -18.43850 -61.16031 35943 ft 417 kts 291°
2026-05-05 17:09 -18.41514 -61.21624 35942 ft 417 kts 291°
2026-05-05 17:09 -18.39181 -61.27207 35944 ft 417 kts 291°
2026-05-05 17:10 -18.36852 -61.32775 35941 ft 417 kts 292°
2026-05-05 17:10 -18.34509 -61.38380 35943 ft 417 kts 291°
2026-05-05 17:11 -18.32248 -61.43983 35939 ft 417 kts 291°
2026-05-05 17:11 -18.29991 -61.49631 35940 ft 417 kts 291°
2026-05-05 17:12 -18.27743 -61.55234 35938 ft 417 kts 291°
2026-05-05 17:12 -18.25474 -61.60867 35940 ft 417 kts 291°
2026-05-05 17:13 -18.23211 -61.66478 35940 ft 417 kts 291°
2026-05-05 17:13 -18.21335 -61.71124 35940 ft 417 kts 291°
2026-05-05 17:14 -18.19062 -61.76750 35939 ft 417 kts 291°
2026-05-05 17:14 -18.16805 -61.82332 35943 ft 417 kts 291°
2026-05-05 17:15 -18.14533 -61.87942 35941 ft 416 kts 291°
2026-05-05 17:15 -18.12265 -61.93534 35932 ft 416 kts 291°
2026-05-05 17:16 -18.09990 -61.99143 35931 ft 416 kts 291°
2026-05-05 17:16 -18.07721 -62.04730 35931 ft 416 kts 291°
2026-05-05 17:17 -18.05451 -62.10319 35932 ft 415 kts 291°
2026-05-05 17:17 -18.03192 -62.15873 35939 ft 415 kts 291°
2026-05-05 17:18 -18.00915 -62.21465 35930 ft 415 kts 291°
2026-05-05 17:18 -17.98653 -62.27017 35934 ft 414 kts 291°
2026-05-05 17:19 -17.96388 -62.32569 35929 ft 414 kts 291°
2026-05-05 17:19 -17.94131 -62.38097 35932 ft 413 kts 291°
2026-05-05 17:20 -17.91857 -62.43663 35926 ft 413 kts 291°
2026-05-05 17:20 -17.89604 -62.49170 35928 ft 412 kts 291°
2026-05-05 17:21 -17.87347 -62.54682 35925 ft 412 kts 292°
2026-05-05 17:22 -17.83964 -62.62935 35928 ft 411 kts 292°
2026-05-05 17:22 -17.81712 -62.68424 35925 ft 410 kts 292°
2026-05-05 17:23 -17.79454 -62.73921 35926 ft 409 kts 292°
2026-05-05 17:23 -17.77194 -62.79418 35930 ft 409 kts 292°
2026-05-05 17:24 -17.74946 -62.84881 35937 ft 409 kts 292°
2026-05-05 17:24 -17.72693 -62.90350 35954 ft 411 kts 292°
2026-05-05 17:25 -17.70410 -62.95891 35960 ft 415 kts 292°
2026-05-05 17:25 -17.68121 -63.01436 35957 ft 414 kts 292°
2026-05-05 17:26 -17.65840 -63.06959 35960 ft 409 kts 292°
2026-05-05 17:26 -17.63593 -63.12395 35971 ft 409 kts 292°
2026-05-05 17:27 -17.61279 -63.17881 35977 ft 412 kts 293°
2026-05-05 17:27 -17.58863 -63.23317 35969 ft 414 kts 294°
2026-05-05 17:28 -17.56411 -63.28798 35962 ft 415 kts 294°
2026-05-05 17:28 -17.53997 -63.34215 35947 ft 410 kts 294°
2026-05-05 17:29 -17.51605 -63.39596 35950 ft 408 kts 294°
2026-05-05 17:29 -17.49207 -63.44993 35955 ft 408 kts 294°
2026-05-05 17:30 -17.46816 -63.50373 35966 ft 412 kts 294°
2026-05-05 17:30 -17.44371 -63.55868 35961 ft 417 kts 294°
2026-05-05 17:31 -17.41914 -63.61385 35966 ft 420 kts 294°
2026-05-05 17:31 -17.39450 -63.66912 35954 ft 420 kts 294°
2026-05-05 17:32 -17.37008 -63.72382 35955 ft 412 kts 294°
2026-05-05 17:32 -17.34567 -63.77847 35973 ft 413 kts 294°
2026-05-05 17:33 -17.32138 -63.83282 35975 ft 414 kts 294°
2026-05-05 17:33 -17.29701 -63.88731 35971 ft 415 kts 294°
2026-05-05 17:34 -17.27245 -63.94216 35975 ft 416 kts 294°
2026-05-05 17:34 -17.24796 -63.99681 35972 ft 417 kts 294°
2026-05-05 17:35 -17.22325 -64.05189 35970 ft 417 kts 294°
2026-05-05 17:35 -17.19867 -64.10665 35977 ft 417 kts 294°
2026-05-05 17:36 -17.17398 -64.16159 35974 ft 417 kts 294°
2026-05-05 17:36 -17.14940 -64.21626 35979 ft 416 kts 294°
2026-05-05 17:37 -17.12471 -64.27111 35972 ft 416 kts 294°
2026-05-05 17:37 -17.10021 -64.32550 35972 ft 416 kts 294°
2026-05-05 17:38 -17.07554 -64.38021 35979 ft 415 kts 294°
2026-05-05 17:38 -17.05097 -64.43465 35972 ft 415 kts 294°
2026-05-05 17:39 -17.02632 -64.48923 35979 ft 414 kts 294°
2026-05-05 17:39 -17.00179 -64.54352 35973 ft 414 kts 294°
2026-05-05 17:40 -16.97723 -64.59779 35981 ft 414 kts 294°
2026-05-05 17:40 -16.95252 -64.65236 35978 ft 414 kts 294°
2026-05-05 17:41 -16.92795 -64.70657 35977 ft 414 kts 294°
2026-05-05 17:41 -16.90321 -64.76113 35975 ft 415 kts 294°
2026-05-05 17:42 -16.87857 -64.81541 35978 ft 415 kts 294°
2026-05-05 17:42 -16.85381 -64.86991 35971 ft 416 kts 295°
2026-05-05 17:43 -16.82902 -64.92443 35974 ft 416 kts 295°
2026-05-05 17:43 -16.80431 -64.97872 35973 ft 416 kts 295°
2026-05-05 17:44 -16.77950 -65.03320 35943 ft 416 kts 295°
2026-05-05 17:44 -16.75468 -65.08764 35939 ft 416 kts 295°
2026-05-05 17:45 -16.72974 -65.14231 35939 ft 416 kts 295°
2026-05-05 17:45 -16.70486 -65.19679 35939 ft 416 kts 295°
2026-05-05 17:46 -16.67994 -65.25132 35937 ft 416 kts 295°
2026-05-05 17:46 -16.65506 -65.30571 35934 ft 416 kts 295°
2026-05-05 17:47 -16.63020 -65.36003 35933 ft 416 kts 295°
2026-05-05 17:47 -16.60517 -65.41465 35931 ft 416 kts 295°
2026-05-05 17:48 -16.58025 -65.46900 35931 ft 416 kts 295°
2026-05-05 17:48 -16.55532 -65.52332 35936 ft 416 kts 295°
2026-05-05 17:49 -16.53042 -65.57755 35935 ft 416 kts 295°
2026-05-05 17:49 -16.50528 -65.63224 35940 ft 416 kts 295°
2026-05-05 17:50 -16.48040 -65.68631 35943 ft 416 kts 295°
2026-05-05 17:50 -16.45539 -65.74063 35944 ft 416 kts 295°
2026-05-05 17:51 -16.43024 -65.79522 35951 ft 416 kts 295°
2026-05-05 17:51 -16.40522 -65.84948 35952 ft 416 kts 295°
2026-05-05 17:52 -16.38010 -65.90390 35951 ft 417 kts 295°
2026-05-05 17:52 -16.35606 -65.95596 35959 ft 417 kts 295°
2026-05-05 17:53 -16.33099 -66.01019 35964 ft 417 kts 295°
2026-05-05 17:53 -16.30589 -66.06445 35961 ft 417 kts 295°
2026-05-05 17:54 -16.28069 -66.11887 35964 ft 417 kts 296°
2026-05-05 17:54 -16.25543 -66.17337 35965 ft 417 kts 296°
2026-05-05 17:55 -16.23017 -66.22783 35969 ft 418 kts 295°
2026-05-05 17:55 -16.20491 -66.28227 35974 ft 417 kts 296°
2026-05-05 17:56 -16.17977 -66.33638 35973 ft 417 kts 296°
2026-05-05 17:56 -16.15447 -66.39081 35977 ft 418 kts 296°
2026-05-05 17:57 -16.12913 -66.44526 35978 ft 417 kts 296°
2026-05-05 17:57 -16.10398 -66.49928 35980 ft 417 kts 296°
2026-05-05 17:58 -16.07877 -66.55339 35973 ft 416 kts 296°
2026-05-05 17:58 -16.05340 -66.60777 35976 ft 416 kts 296°
2026-05-05 17:59 -16.02819 -66.66179 35976 ft 416 kts 296°
2026-05-05 17:59 -16.00299 -66.71573 35976 ft 417 kts 296°
2026-05-05 18:00 -15.97760 -66.77006 35977 ft 417 kts 296°
2026-05-05 18:00 -15.95223 -66.82428 35977 ft 417 kts 296°
2026-05-05 18:01 -15.92693 -66.87832 35979 ft 417 kts 296°
2026-05-05 18:01 -15.90162 -66.93233 35978 ft 417 kts 296°
2026-05-05 18:02 -15.87608 -66.98679 35979 ft 417 kts 296°
2026-05-05 18:02 -15.85075 -67.04075 35993 ft 418 kts 296°
2026-05-05 18:03 -15.82527 -67.09501 35990 ft 418 kts 296°
2026-05-05 18:03 -15.79980 -67.14919 35981 ft 418 kts 296°
2026-05-05 18:04 -15.77420 -67.20361 35979 ft 419 kts 296°
2026-05-05 18:04 -15.74875 -67.25767 35967 ft 418 kts 296°
2026-05-05 18:05 -15.72315 -67.31201 35977 ft 418 kts 296°
2026-05-05 18:05 -15.69766 -67.36607 35980 ft 418 kts 296°
2026-05-05 18:06 -15.67212 -67.42019 35978 ft 419 kts 297°
2026-05-05 18:06 -15.64644 -67.47458 35982 ft 419 kts 296°
2026-05-05 18:07 -15.62084 -67.52874 35971 ft 419 kts 297°
2026-05-05 18:07 -15.59525 -67.58285 35981 ft 418 kts 297°
2026-05-05 18:08 -15.56965 -67.63692 35968 ft 419 kts 297°
2026-05-05 18:08 -15.54402 -67.69104 35973 ft 419 kts 297°
2026-05-05 18:09 -15.51838 -67.74512 35975 ft 418 kts 297°
2026-05-05 18:09 -15.49263 -67.79941 35973 ft 418 kts 297°
2026-05-05 18:10 -15.46702 -67.85335 35973 ft 419 kts 297°
2026-05-05 18:10 -15.44126 -67.90756 35975 ft 418 kts 297°
2026-05-05 18:11 -15.41551 -67.96171 35977 ft 418 kts 297°
2026-05-05 18:11 -15.39415 -68.00661 35974 ft 418 kts 297°
2026-05-05 18:12 -15.33857 -68.12328 35985 ft 419 kts 297°
2026-05-05 18:13 -15.31290 -68.17709 35989 ft 419 kts 297°
2026-05-05 18:13 -15.28707 -68.23121 35987 ft 419 kts 297°
2026-05-05 18:14 -15.26121 -68.28535 35999 ft 419 kts 297°
2026-05-05 18:14 -15.23536 -68.33943 36003 ft 419 kts 297°
2026-05-05 18:15 -15.20960 -68.39328 36021 ft 417 kts 297°
2026-05-05 18:15 -15.18384 -68.44709 36031 ft 417 kts 297°
2026-05-05 18:16 -15.15808 -68.50085 36035 ft 418 kts 297°
2026-05-05 18:16 -15.13231 -68.55462 36057 ft 417 kts 297°
2026-05-05 18:17 -15.10657 -68.60827 36063 ft 417 kts 297°
2026-05-05 18:17 -15.08502 -68.65315 36076 ft 416 kts 297°
2026-05-05 18:18 -15.05926 -68.70678 36084 ft 417 kts 297°
2026-05-05 18:18 -15.03338 -68.76058 36102 ft 418 kts 297°
2026-05-05 18:19 -15.00753 -68.81431 36131 ft 420 kts 297°
2026-05-05 18:19 -14.98145 -68.86849 36143 ft 422 kts 297°
2026-05-05 18:20 -14.95514 -68.92310 36169 ft 423 kts 297°
2026-05-05 18:20 -14.92895 -68.97741 36169 ft 423 kts 297°
2026-05-05 18:21 -14.90264 -69.03198 36162 ft 423 kts 297°
2026-05-05 18:21 -14.87643 -69.08624 36186 ft 420 kts 297°
2026-05-05 18:22 -14.85043 -69.14002 36181 ft 420 kts 298°
2026-05-05 18:22 -14.82433 -69.19399 36187 ft 418 kts 297°
2026-05-05 18:23 -14.79831 -69.24775 36172 ft 417 kts 298°
2026-05-05 18:23 -14.77249 -69.30108 36186 ft 417 kts 298°
2026-05-05 18:24 -14.74651 -69.35468 36178 ft 416 kts 298°
2026-05-05 18:24 -14.72069 -69.40791 36182 ft 415 kts 297°
2026-05-05 18:25 -14.69475 -69.46136 36162 ft 416 kts 298°
2026-05-05 18:25 -14.66872 -69.51495 36164 ft 417 kts 298°
2026-05-05 18:26 -14.64267 -69.56856 36158 ft 418 kts 298°
2026-05-05 18:26 -14.61669 -69.62197 36163 ft 418 kts 298°
2026-05-05 18:27 -14.59052 -69.67574 36151 ft 419 kts 298°
2026-05-05 18:27 -14.56429 -69.72960 36158 ft 419 kts 298°
2026-05-05 18:28 -14.52509 -69.81001 36149 ft 420 kts 298°
2026-05-05 18:28 -14.49872 -69.86405 36154 ft 420 kts 298°
2026-05-05 18:29 -14.47257 -69.91763 36144 ft 420 kts 298°
2026-05-05 18:29 -14.44622 -69.97156 36143 ft 420 kts 298°
2026-05-05 18:30 -14.41986 -70.02547 36142 ft 420 kts 298°
2026-05-05 18:30 -14.39354 -70.07926 36138 ft 419 kts 298°
2026-05-05 18:31 -14.36750 -70.13245 36130 ft 418 kts 298°
2026-05-05 18:31 -14.34123 -70.18607 36133 ft 418 kts 298°
2026-05-05 18:32 -14.31499 -70.23959 36135 ft 418 kts 298°
2026-05-05 18:32 -14.28873 -70.29311 36130 ft 417 kts 298°
2026-05-05 18:33 -14.26251 -70.34652 36134 ft 417 kts 298°
2026-05-05 18:33 -14.23646 -70.39953 36148 ft 417 kts 298°
2026-05-05 18:34 -14.21020 -70.45294 36145 ft 417 kts 298°
2026-05-05 18:34 -14.18394 -70.50633 36152 ft 417 kts 298°
2026-05-05 18:35 -14.15763 -70.55976 36169 ft 418 kts 298°
2026-05-05 18:35 -14.13129 -70.61324 36168 ft 419 kts 298°
2026-05-05 18:36 -14.10503 -70.66651 36177 ft 420 kts 298°
2026-05-05 18:36 -14.07854 -70.72020 36172 ft 420 kts 298°
2026-05-05 18:37 -14.05203 -70.77390 36186 ft 420 kts 298°
2026-05-05 18:37 -14.02552 -70.82756 36184 ft 420 kts 298°
2026-05-05 18:38 -13.99918 -70.88085 36194 ft 420 kts 298°
2026-05-05 18:38 -13.97261 -70.93455 36185 ft 420 kts 298°
2026-05-05 18:39 -13.94605 -70.98824 36184 ft 420 kts 298°
2026-05-05 18:39 -13.91946 -71.04191 36179 ft 420 kts 298°
2026-05-05 18:40 -13.89305 -71.09519 36167 ft 420 kts 298°
2026-05-05 18:40 -13.86649 -71.14875 36167 ft 419 kts 298°
2026-05-05 18:41 -13.83994 -71.20225 36150 ft 420 kts 298°
2026-05-05 18:41 -13.81332 -71.25584 36139 ft 420 kts 298°
2026-05-05 18:42 -13.78691 -71.30899 36130 ft 420 kts 298°
2026-05-05 18:42 -13.76026 -71.36258 36130 ft 420 kts 298°
2026-05-05 18:43 -13.73357 -71.41623 36117 ft 421 kts 298°
2026-05-05 18:43 -13.70702 -71.46955 36107 ft 421 kts 298°
2026-05-05 18:44 -13.68032 -71.52316 36094 ft 421 kts 298°
2026-05-05 18:44 -13.65353 -71.57688 36082 ft 422 kts 298°
2026-05-05 18:45 -13.62772 -71.63116 36140 ft 422 kts 296°
2026-05-05 18:45 -13.60324 -71.68568 36222 ft 422 kts 296°
2026-05-05 18:46 -13.57862 -71.74048 36303 ft 421 kts 296°
2026-05-05 18:46 -13.55385 -71.79516 36404 ft 420 kts 296°
2026-05-05 18:47 -13.52909 -71.84955 36482 ft 420 kts 296°
2026-05-05 18:47 -13.50444 -71.90365 36483 ft 420 kts 296°
2026-05-05 18:48 -13.47958 -71.95812 36495 ft 420 kts 296°
2026-05-05 18:48 -13.45490 -72.01221 36446 ft 420 kts 297°
2026-05-05 18:49 -13.43014 -72.06643 36372 ft 419 kts 297°
2026-05-05 18:49 -13.40536 -72.12065 36283 ft 419 kts 297°
2026-05-05 18:50 -13.38073 -72.17451 36198 ft 418 kts 297°
2026-05-05 18:50 -13.35591 -72.22877 36115 ft 418 kts 297°
2026-05-05 18:51 -13.33130 -72.28243 36078 ft 416 kts 296°
2026-05-05 18:51 -13.30671 -72.33612 36099 ft 415 kts 297°
2026-05-05 18:52 -13.28208 -72.38989 36111 ft 415 kts 297°
2026-05-05 18:52 -13.25753 -72.44341 36112 ft 417 kts 297°
2026-05-05 18:53 -13.23267 -72.49753 36100 ft 420 kts 297°
2026-05-05 18:53 -13.20785 -72.55159 36114 ft 420 kts 297°
2026-05-05 18:54 -13.18293 -72.60580 36127 ft 420 kts 297°
2026-05-05 18:54 -13.15798 -72.66005 36123 ft 420 kts 297°
2026-05-05 18:55 -13.13306 -72.71421 36134 ft 419 kts 297°
2026-05-05 18:55 -13.10818 -72.76821 36123 ft 419 kts 297°
2026-05-05 18:56 -13.09004 -72.82472 36109 ft 421 kts 285°
2026-05-05 18:56 -13.07706 -72.88340 36120 ft 422 kts 285°
2026-05-05 18:57 -13.06419 -72.94212 36108 ft 422 kts 285°
2026-05-05 18:57 -13.05099 -73.00086 36112 ft 421 kts 285°
2026-05-05 18:58 -13.03772 -73.05909 36070 ft 421 kts 285°
2026-05-05 18:58 -13.02439 -73.11737 36088 ft 418 kts 286°
2026-05-05 18:59 -13.01114 -73.17520 36076 ft 419 kts 286°
2026-05-05 18:59 -12.99777 -73.23349 36064 ft 421 kts 286°
2026-05-05 19:00 -12.98430 -73.29218 36044 ft 424 kts 286°
2026-05-05 19:00 -12.97075 -73.35120 36037 ft 425 kts 286°
2026-05-05 19:01 -12.95723 -73.41002 36026 ft 426 kts 286°
2026-05-05 19:01 -12.94358 -73.46928 36020 ft 426 kts 286°
2026-05-05 19:02 -12.92998 -73.52832 36040 ft 424 kts 286°
2026-05-05 19:02 -12.92216 -73.56225 36031 ft 423 kts 286°
2026-05-05 19:03 -12.92171 -73.56421 36028 ft 423 kts 286°
2026-05-05 19:03 -12.90773 -73.62478 36043 ft 421 kts 286°
2026-05-05 19:04 -12.89429 -73.68291 36042 ft 420 kts 286°
2026-05-05 19:04 -12.88090 -73.74077 36054 ft 418 kts 286°
2026-05-05 19:05 -12.86973 -73.78899 36065 ft 417 kts 286°
2026-05-05 19:05 -12.85632 -73.84688 36083 ft 417 kts 286°
2026-05-05 19:06 -12.84290 -73.90469 36078 ft 417 kts 286°
2026-05-05 19:06 -12.82949 -73.96245 36080 ft 417 kts 286°
2026-05-05 19:07 -12.81608 -74.02005 36077 ft 417 kts 286°
2026-05-05 19:07 -12.80266 -74.07786 36091 ft 416 kts 286°
2026-05-05 19:08 -12.78919 -74.13563 36079 ft 416 kts 286°
2026-05-05 19:08 -12.77580 -74.19297 36082 ft 416 kts 286°
2026-05-05 19:09 -12.76230 -74.25082 36077 ft 416 kts 286°
2026-05-05 19:09 -12.74880 -74.30860 36080 ft 416 kts 286°
2026-05-05 19:10 -12.73538 -74.36599 36077 ft 417 kts 286°
2026-05-05 19:10 -12.72184 -74.42383 36071 ft 417 kts 286°
2026-05-05 19:11 -12.70828 -74.48169 36077 ft 417 kts 285°
2026-05-05 19:11 -12.69471 -74.53957 36073 ft 419 kts 286°
2026-05-05 19:12 -12.68118 -74.59719 36104 ft 417 kts 286°
2026-05-05 19:12 -12.66757 -74.65511 36101 ft 418 kts 286°
2026-05-05 19:13 -12.65402 -74.71266 36097 ft 418 kts 286°
2026-05-05 19:13 -12.64038 -74.77058 36118 ft 417 kts 286°
2026-05-05 19:14 -12.62674 -74.82841 36111 ft 417 kts 286°
2026-05-05 19:14 -12.61311 -74.88618 36117 ft 417 kts 286°
2026-05-05 19:15 -12.59954 -74.94361 36122 ft 416 kts 286°
2026-05-05 19:15 -12.58599 -75.00094 36139 ft 416 kts 286°
2026-05-05 19:16 -12.57233 -75.05867 36143 ft 415 kts 286°
2026-05-05 19:16 -12.55875 -75.11594 36129 ft 415 kts 286°
2026-05-05 19:17 -12.54510 -75.17349 36145 ft 415 kts 286°
2026-05-05 19:17 -12.53151 -75.23077 36135 ft 417 kts 286°
2026-05-05 19:18 -12.51785 -75.28839 36136 ft 417 kts 285°
2026-05-05 19:18 -12.50475 -75.34590 36138 ft 416 kts 285°
2026-05-05 19:19 -12.49170 -75.40386 36130 ft 416 kts 285°
2026-05-05 19:19 -12.47872 -75.46123 36135 ft 416 kts 285°
2026-05-05 19:20 -12.46559 -75.51902 36138 ft 415 kts 285°
2026-05-05 19:20 -12.45911 -75.54750 35987 ft 417 kts 285°
2026-05-05 19:20 -12.45249 -75.57657 35522 ft 418 kts 285°
2026-05-05 19:21 -12.44589 -75.60558 34961 ft 418 kts 286°
2026-05-05 19:21 -12.43927 -75.63464 34463 ft 418 kts 286°
2026-05-05 19:21 -12.43264 -75.66369 33721 ft 423 kts 287°
2026-05-05 19:21 -12.42602 -75.69267 33186 ft 422 kts 286°
2026-05-05 19:22 -12.41934 -75.72191 32698 ft 420 kts 286°
2026-05-05 19:22 -12.41271 -75.75099 32254 ft 418 kts 286°
2026-05-05 19:22 -12.40610 -75.77995 31807 ft 415 kts 286°
2026-05-05 19:22 -12.39962 -75.80832 31359 ft 413 kts 286°
2026-05-05 19:23 -12.39309 -75.83690 30937 ft 409 kts 286°
2026-05-05 19:23 -12.38661 -75.86522 30482 ft 407 kts 286°
2026-05-05 19:23 -12.38024 -75.89302 30068 ft 404 kts 286°
2026-05-05 19:23 -12.37384 -75.92096 29550 ft 402 kts 286°
2026-05-05 19:24 -12.36747 -75.94871 29097 ft 399 kts 285°
2026-05-05 19:24 -12.36112 -75.97646 28695 ft 395 kts 285°
2026-05-05 19:24 -12.35495 -76.00340 28348 ft 391 kts 285°
2026-05-05 19:24 -12.34874 -76.03042 27949 ft 388 kts 285°
2026-05-05 19:25 -12.34264 -76.05748 27456 ft 387 kts 285°
2026-05-05 19:25 -12.33691 -76.08393 27036 ft 386 kts 284°
2026-05-05 19:25 -12.33117 -76.11075 26653 ft 383 kts 284°
2026-05-05 19:25 -12.32549 -76.13731 26274 ft 381 kts 284°
2026-05-05 19:26 -12.31978 -76.16381 25897 ft 379 kts 284°
2026-05-05 19:26 -12.31410 -76.19007 25533 ft 378 kts 284°
2026-05-05 19:26 -12.30849 -76.21598 25155 ft 376 kts 284°
2026-05-05 19:26 -12.30284 -76.24204 24800 ft 374 kts 284°
2026-05-05 19:27 -12.29726 -76.26792 24416 ft 372 kts 284°
2026-05-05 19:27 -12.29171 -76.29380 24034 ft 370 kts 284°
2026-05-05 19:27 -12.28618 -76.31954 23663 ft 369 kts 284°
2026-05-05 19:27 -12.28076 -76.34479 23308 ft 366 kts 284°
2026-05-05 19:28 -12.27526 -76.37040 22800 ft 366 kts 284°
2026-05-05 19:28 -12.26978 -76.39584 22387 ft 364 kts 284°
2026-05-05 19:28 -12.26441 -76.42078 21965 ft 362 kts 284°
2026-05-05 19:28 -12.25899 -76.44596 21527 ft 360 kts 284°
2026-05-05 19:29 -12.25365 -76.47071 21132 ft 358 kts 284°
2026-05-05 19:29 -12.24826 -76.49559 20720 ft 357 kts 284°
2026-05-05 19:29 -12.24288 -76.52041 20330 ft 356 kts 284°
2026-05-05 19:29 -12.23754 -76.54510 19970 ft 353 kts 284°
2026-05-05 19:30 -12.23227 -76.56940 19541 ft 354 kts 284°
2026-05-05 19:30 -12.22696 -76.59391 19198 ft 351 kts 284°
2026-05-05 19:30 -12.22169 -76.61823 18835 ft 349 kts 284°
2026-05-05 19:30 -12.21643 -76.64246 18491 ft 347 kts 284°
2026-05-05 19:31 -12.21123 -76.66631 18123 ft 346 kts 284°
2026-05-05 19:31 -12.20600 -76.69022 17846 ft 340 kts 284°
2026-05-05 19:31 -12.20098 -76.71315 17780 ft 328 kts 284°
2026-05-05 19:31 -12.19605 -76.73566 17697 ft 318 kts 284°
2026-05-05 19:32 -12.19130 -76.75734 17623 ft 307 kts 284°
2026-05-05 19:32 -12.18669 -76.77841 17505 ft 299 kts 284°
2026-05-05 19:32 -12.18222 -76.79875 17304 ft 294 kts 284°
2026-05-05 19:32 -12.17772 -76.81920 17020 ft 293 kts 284°
2026-05-05 19:33 -12.17325 -76.83954 16730 ft 293 kts 284°
2026-05-05 19:33 -12.16880 -76.85981 16468 ft 291 kts 284°
2026-05-05 19:33 -12.16438 -76.87997 16196 ft 289 kts 283°
2026-05-05 19:33 -12.15998 -76.90000 15935 ft 288 kts 284°
2026-05-05 19:34 -12.15564 -76.91970 15674 ft 287 kts 284°
2026-05-05 19:34 -12.15127 -76.93964 15395 ft 286 kts 283°
2026-05-05 19:34 -12.14691 -76.95954 15120 ft 285 kts 283°
2026-05-05 19:35 -12.13834 -76.99876 14622 ft 282 kts 283°
2026-05-05 19:35 -12.13405 -77.01834 14375 ft 281 kts 283°
2026-05-05 19:35 -12.12977 -77.03791 14125 ft 281 kts 283°
2026-05-05 19:35 -12.12551 -77.05733 13866 ft 280 kts 283°
2026-05-05 19:36 -12.12131 -77.07647 13616 ft 278 kts 283°
2026-05-05 19:36 -12.11709 -77.09573 13376 ft 273 kts 283°
2026-05-05 19:36 -12.11298 -77.11448 12925 ft 272 kts 283°
2026-05-05 19:36 -12.10884 -77.13336 12506 ft 271 kts 283°
2026-05-05 19:37 -12.10474 -77.15204 12131 ft 268 kts 283°
2026-05-05 19:37 -12.10068 -77.17051 11744 ft 265 kts 283°
2026-05-05 19:37 -12.09367 -77.18742 11335 ft 261 kts 309°
2026-05-05 19:37 -12.07998 -77.19932 10947 ft 257 kts 330°
2026-05-05 19:38 -12.06402 -77.20760 10585 ft 255 kts 335°
2026-05-05 19:38 -12.04798 -77.21521 10221 ft 253 kts 335°
2026-05-05 19:38 -12.03216 -77.22280 9874 ft 254 kts 334°
2026-05-05 19:38 -12.01631 -77.23051 9662 ft 250 kts 334°
2026-05-05 19:39 -12.00070 -77.23843 9384 ft 250 kts 333°
2026-05-05 19:39 -11.98532 -77.24645 9120 ft 249 kts 333°
2026-05-05 19:39 -11.96988 -77.25452 8861 ft 248 kts 333°
2026-05-05 19:39 -11.95471 -77.26244 8602 ft 247 kts 333°
2026-05-05 19:40 -11.93939 -77.27043 8338 ft 246 kts 333°
2026-05-05 19:40 -11.92421 -77.27834 8085 ft 246 kts 333°
2026-05-05 19:40 -11.90883 -77.28601 7831 ft 245 kts 334°
2026-05-05 19:40 -11.89340 -77.29358 7572 ft 244 kts 334°
2026-05-05 19:41 -11.87825 -77.30100 7326 ft 244 kts 334°
2026-05-05 19:41 -11.86261 -77.30755 7067 ft 243 kts 349°
2026-05-05 19:41 -11.84584 -77.30628 6796 ft 243 kts 21°
2026-05-05 19:41 -11.83228 -77.29659 6551 ft 242 kts 49°
2026-05-05 19:42 -11.82332 -77.28205 6317 ft 242 kts 62°
2026-05-05 19:42 -11.81595 -77.26662 5938 ft 241 kts 64°
2026-05-05 19:42 -11.81172 -77.24959 5192 ft 255 kts 91°
2026-05-05 19:42 -11.81641 -77.23219 4513 ft 265 kts 122°
2026-05-05 19:43 -11.83012 -77.21958 3822 ft 271 kts 152°
2026-05-05 19:43 -11.84731 -77.21193 3487 ft 262 kts 158°
2026-05-05 19:43 -11.86385 -77.20466 3157 ft 255 kts 155°
2026-05-05 19:43 -11.87959 -77.19697 2863 ft 246 kts 154°
2026-05-05 19:44 -11.89440 -77.18956 2550 ft 233 kts 154°
2026-05-05 19:44 -11.90866 -77.18245 2260 ft 223 kts 154°
2026-05-05 19:44 -11.92211 -77.17578 1965 ft 207 kts 155°
2026-05-05 19:44 -11.93461 -77.16956 1722 ft 190 kts 155°
2026-05-05 19:45 -11.94582 -77.16398 1477 ft 173 kts 155°
2026-05-05 19:45 -11.95608 -77.15890 1272 ft 156 kts 155°
2026-05-05 19:45 -11.96544 -77.15426 1065 ft 143 kts 155°
2026-05-05 19:45 -11.97398 -77.15001 898 ft 135 kts 155°
2026-05-05 19:46 -11.98245 -77.14581 725 ft 134 kts 155°
2026-05-05 19:46 -11.99084 -77.14164 541 ft 132 kts 154°
2026-05-05 19:46 -11.99900 -77.13751 337 ft 131 kts 154°
2026-05-05 19:46 -12.00711 -77.13348 172 ft 126 kts 155°
2026-05-05 19:47 -12.01486 -77.12967 39 ft 123 kts 156°
2026-05-05 19:47 -12.02171 -77.12633 39 ft 89 kts 154°
2026-05-05 19:47 -12.02590 -77.12424 65 ft 30 kts 152°
2026-05-05 19:47 -12.02692 -77.12332 81 ft 17 kts 126°
2026-05-05 19:48 -12.02723 -77.12289 87 ft 7 kts 126°
2026-05-05 19:48 -12.02755 -77.12245 86 ft 8 kts 126°
2026-05-05 19:48 -12.02756 -77.12193 90 ft 9 kts 39°
2026-05-05 19:48 -12.02687 -77.12203 87 ft 13 kts 338°
2026-05-05 19:49 -12.02592 -77.12249 85 ft 13 kts 334°
2026-05-05 19:49 -12.02542 -77.12273 84 ft 13 kts 335°
2026-05-05 19:49 -12.02443 -77.12320 75 ft 11 kts 335°
2026-05-05 19:49 -12.02362 -77.12359 66 ft 15 kts 335°
2026-05-05 19:50 -12.02253 -77.12411 60 ft 16 kts 335°
2026-05-05 19:50 -12.02197 -77.12372 69 ft 11 kts 61°
2026-05-05 19:50 -12.02160 -77.12305 70 ft 11 kts 62°
2026-05-05 19:50 -12.02125 -77.12233 74 ft 11 kts 63°
2026-05-05 19:51 -12.02080 -77.12139 68 ft 21 kts 64°
2026-05-05 19:51 -12.02012 -77.11995 74 ft 23 kts 64°
2026-05-05 19:51 -12.01946 -77.11851 71 ft 22 kts 65°
2026-05-05 19:51 -12.01912 -77.11776 70 ft 11 kts 70°
2026-05-05 19:52 -12.01959 -77.11720 71 ft 14 kts 152°
2026-05-05 19:52 -12.02060 -77.11670 73 ft 17 kts 154°
2026-05-05 19:52 -12.02172 -77.11616 83 ft 19 kts 154°
2026-05-05 19:52 -12.02268 -77.11570 84 ft 13 kts 155°
2026-05-05 19:53 -12.02373 -77.11516 88 ft 19 kts 153°
2026-05-05 19:53 -12.02494 -77.11454 89 ft 19 kts 153°
2026-05-05 19:53 -12.02561 -77.11376 92 ft 12 kts 67°
2026-05-05 19:53 -12.02517 -77.11283 92 ft 22 kts 64°
2026-05-05 19:54 -12.02457 -77.11161 90 ft 18 kts 64°
2026-05-05 19:54 -12.02403 -77.11116 91 ft 8 kts
2026-05-05 19:54 -12.02339 -77.11109 88 ft 11 kts
2026-05-05 19:54 -12.02298 -77.11082 90 ft 6 kts 96°
2026-05-05 19:55 -12.02337 -77.11057 88 ft 8 kts 151°
2026-05-05 19:55 -12.02344 -77.11034 90 ft 4 kts 79°
2026-05-05 19:55 -12.02324 -77.10993 91 ft 3 kts 62°
2026-05-05 19:55 -12.02316 -77.10978 90 ft 3 kts 62°
2026-05-05 19:56 -12.02312 -77.10970 90 ft 0 kts 62°